Regional Weather Roundup
Issued by NWS Cleveland, OH

Home | Current Version | Previous Version | Graphics & Text | Print | Product List | Glossary On
Versions: 1 2 3 4 5 6 7 8 9 10 11 12 13 14 15 16 17 18 19 20 21 22 23 24 25 26 27 28 29 30 31 32 33 34 35 36 37 38 39 40 41 42 43 44 45 46 47 48 49 50
000
ASUS41 KCLE 291110
RWRCLE
OHIO REGIONAL WEATHER ROUNDUP
NATIONAL WEATHER SERVICE CLEVELAND, OH
700 AM EDT SUN MAR 29 2015

NOTE: "FAIR" INDICATES FEW OR NO CLOUDS BELOW 12,000 FEET WITH NO
SIGNIFICANT WEATHER AND/OR OBSTRUCTIONS TO VISIBILITY.

OHZ001>008-015>018-024>027-034-035-043-044-291200-
   NORTHWEST OHIO

CITY           SKY/WX    TMP DP  RH WIND       PRES   REMARKS
DEFIANCE       CLEAR     22  15  75 S5        30.29R WCI  16
FINDLAY        CLEAR     23  16  74 S10       30.29S WCI  12
TOLEDO EXPRESS CLEAR     23  14  68 S7        30.27F WCI  15
TOLEDO EXEC    CLEAR     20  13  74 S8        30.29F WCI  10
LIMA           CLEAR     23  14  68 S8        30.29S WCI  14
$$

OHZ009>014-019>023-028>033-038-089-291200-
   NORTHEAST OHIO

CITY           SKY/WX    TMP DP  RH WIND       PRES   REMARKS
CLE-HOPKINS    CLEAR     21  13  71 SW9       30.33S WCI  11
CLE-LAKEFRONT  CLEAR     23  13  65 S8        30.31S WCI  14
CUY CO. ARPT   CLEAR     23  14  68 SW8       30.31  WCI  14
LORAIN-ELYRIA  CLEAR     20  14  77 SW7       30.31S WCI  11
ASHTABULA      CLEAR     17  11  77 S5        30.30S WCI  10
AKRON-CANTON   CLEAR     16   9  74 S6        30.31R WCI   7
WOOSTER        CLEAR     18  13  80 S3        30.31S
MANSFIELD      CLEAR     19  11  70 S6        30.29S WCI  11
YOUNGSTOWN     CLEAR     16   9  74 S5        30.30R WCI   9
$$

OHZ042-051>053-060>062-070>072-077>081-291200-
  SOUTHWEST OHIO

CITY           SKY/WX    TMP DP  RH WIND       PRES   REMARKS
CINC-COVINGTON CLEAR     23  12  62 S6        30.34R WCI  16
CINC-LUNKEN    CLEAR     20  17  88 CALM      30.38S
HAMILTON       CLEAR     20  14  77 SE3       30.37R
DAYTON         PTCLDY    24  14  65 S8        30.33R WCI  15
WRIGHT-PAT AFB CLEAR     21  14  76 VRB1      30.34R
DAYTON GENERAL CLEAR     21  14  74 S7        30.32S WCI  12
WILMINGTON     CLEAR     21  12  68 S6        30.33S WCI  13
$$

OHZ036-037-039>041-045>050-054>059-063>069-073>076-082>088-291200-
  CENTRAL AND SOUTHEAST OHIO

CITY           SKY/WX    TMP DP  RH WIND       PRES   REMARKS
COLUMBUS       CLEAR     18  14  84 CALM      30.35R
OSU AIRPORT    CLEAR     20  12  71 S5        30.33S WCI  13
BOLTON FIELD   CLEAR    N/A N/A N/A S7        30.34S
RICKENBACK AFB CLEAR     18  13  81 S6        30.35R WCI  10
NEWARK         CLEAR     15  12  88 CALM      30.34R
MARION         CLEAR     17  11  77 S8        30.31S WCI   7
LANCASTER      CLEAR     16  12  84 CALM      30.35R
ZANESVILLE     CLEAR     14   9  80 CALM      30.35R
NEW PHILLY     CLEAR     16  10  77 SE3       30.36R
$$


USA.gov is the U.S. government's official web portal to all federal, state and local government web resources and services.